EW1527 Weather Reports


time (UTC)temp
F
wind
direction
speed
knots
gust
knots
rain 1hr
in
rain 24hr
in
rain mn
in
humidity
%
barometer
mb
20260504194605 72 1 5.2 11.3 0.00 0.00 0.00 31 1011.4
20260504193100 71 1 4.3 14.8 0.00 0.00 0.00 32 1011.5
20260504191623 71 1 3.5 13.0 0.00 0.00 0.00 32 1011.8
20260504191502 71 1 5.2 13.0 0.00 0.00 0.00 32 1011.8
20260504190110 71 1 5.2 15.6 0.00 0.00 0.00 31 1012.0
20260504190002 71 1 6.1 15.6 0.00 0.00 0.00 32 1012.0
20260504184609 70 1 4.3 16.5 0.00 0.00 0.00 32 1012.1
20260504183100 70 1 8.7 19.1 0.00 0.00 0.00 32 1012.5
20260504181606 71 1 5.2 10.4 0.00 0.00 0.00 32 1012.7
20260504181504 71 1 5.2 10.4 0.00 0.00 0.00 32 1012.7
20260504180100 70 1 6.1 13.0 0.00 0.00 0.00 34 1012.8
20260504180003 70 1 5.2 13.0 0.00 0.00 0.00 33 1012.8
20260504174600 69 1 4.3 13.0 0.00 0.00 0.00 33 1013.1
20260504173105 69 1 5.2 13.0 0.00 0.00 0.00 34 1013.1
20260504171604 69 1 5.2 17.4 0.00 0.00 0.00 35 1013.5
20260504081558 49 1 3.5 7.8 0.00 0.00 0.00 56 1016.0
20260504060107 49 1 2.6 6.1 0.00 0.00 0.00 48 1015.9
20260504050115 50 1 0.9 3.5 0.00 0.00 0.00 47 1015.8
20260504044557 50 1 1.7 7.8 0.00 0.00 0.00 46 1015.7
20260504043009 51 1 3.5 7.8 0.00 0.00 0.00 45 1015.6
20260504041501 51 1 2.6 6.1 0.00 0.00 0.00 46 1015.4
20260504040008 51 1 3.5 7.8 0.00 0.00 0.00 45 1015.4
20260504034504 51 1 2.6 7.0 0.00 0.00 0.00 44 1015.2
20260504033001 52 1 3.5 7.8 0.00 0.00 0.00 44 1015.2
20260504031501 52 1 3.5 11.3 0.00 0.00 0.00 43 1015.1
20260504030003 52 1 2.6 7.8 0.00 0.00 0.00 44 1015.0
20260504024507 52 1 3.5 7.8 0.00 0.00 0.00 43 1015.1
20260504023002 52 1 2.6 7.0 0.00 0.00 0.00 42 1015.1
20260504021502 53 1 3.5 7.0 0.00 0.00 0.00 42 1015.1
20260504020003 53 1 3.5 7.8 0.00 0.00 0.00 42 1015.0
20260504014507 53 1 2.6 7.0 0.00 0.00 0.00 41 1015.0
20260504013001 53 1 2.6 7.0 0.00 0.00 0.00 41 1014.9
20260504011501 54 1 1.7 5.2 0.00 0.00 0.00 41 1014.7
20260504010003 54 1 1.7 4.3 0.00 0.00 0.00 40 1014.5
20260504004500 55 1 1.7 4.3 0.00 0.00 0.00 39 1014.4
20260504003001 55 1 1.7 5.2 0.00 0.00 0.00 37 1014.1
20260504001502 56 1 1.7 7.0 0.00 0.00 0.00 37 1014.0
20260504000004 57 1 3.5 8.7 0.00 0.00 0.00 35 1013.9
20260503234501 57 1 2.6 8.7 0.00 0.00 0.00 34 1013.7
20260503233001 58 1 3.5 10.4 0.00 0.00 0.00 33 1013.5
20260503231502 58 1 4.3 13.9 0.00 0.00 0.00 32 1013.6
20260503230002 58 1 6.1 13.9 0.00 0.00 0.00 31 1013.5
20260503224600 59 1 3.5 13.9 0.00 0.00 0.00 31 1013.4
20260503223100 59 1 5.2 13.0 0.00 0.00 0.00 30 1013.3
20260503221602 59 1 8.7 20.9 0.00 0.00 0.00 29 1013.3
20260503220100 59 1 10.4 18.2 0.00 0.00 0.00 29 1013.3
20260503220011 59 1 9.6 18.2 0.00 0.00 0.00 29 1013.3
20260503214559 59 1 6.1 16.5 0.00 0.00 0.00 29 1013.3
20260503213100 59 1 7.0 18.2 0.00 0.00 0.00 30 1013.2
20260503211604 59 1 6.1 16.5 0.00 0.00 0.00 28 1013.2
20260503210100 59 1 11.3 22.6 0.00 0.00 0.00 29 1013.3
20260503210002 59 1 11.3 22.6 0.00 0.00 0.00 29 1013.3
20260503204600 59 1 4.3 14.8 0.00 0.00 0.00 31 1013.5
20260503203115 57 1 7.8 17.4 0.00 0.00 0.00 31 1013.7
20260503201601 57 1 7.8 18.2 0.00 0.00 0.00 31 1013.6
20260503200100 57 1 6.1 13.0 0.00 0.00 0.00 32 1013.7
20260503200002 57 1 5.2 13.0 0.00 0.00 0.00 32 1013.6